Location: Christchurch
(43.5330°S, 172.6330°E)
Time: 16:59:29
(UTC+13:00)

Spot 2 Rocket - Pass Details

Date: 24 January 2019
Orbit: 758 x 772 km, 98.6° (Epoch: 18 February)

Event Time Altitude Azimuth Distance (km) Brightness Sun altitude
Rises 23:13:38 0° 169° (S) 3,285 7.4 -18.7°
Reaches altitude 10° 23:15:59 10° 171° (S) 2,349 6.6 -18.9°
Maximum altitude 23:21:08 71° 253° (WSW) 825 3.7 -19.5°
Enters shadow 23:25:11 16° 334° (NNW) 1,912 5.3 -19.9°
